Anaktuvuk Pass, AK

9:57 AM AKDT on October 23, 2017 (GMT -0800)
Anaktuvuk Pass

Weather History for PAKP - March, 2014

Change the Weather History Date:

Wednesday, March 5, 2014

  Actual Average Record
Temperature  
Mean Temperature -18 °F -  
Max Temperature -14 °F 0 °F 19 °F (2008)
Min Temperature -23 °F -13 °F -36 °F (2007)
Degree Days  
Heating Degree Days 84    
Moisture  
Dew Point -28 °F    
Average Humidity 57    
Maximum Humidity 64    
Minimum Humidity 53    
Precipitation  
Precipitation 0.00 in - - ()
Sea Level Pressure  
Sea Level Pressure 30.06 in    
Wind  
Wind Speed 15 mph (NE)    
Max Wind Speed 21 mph    
Max Gust Speed 26 mph    
Visibility 6 miles    
Events      
Averages and records for this station are not official NWS values.
T = Trace of Precipitation, MM = Missing Value Source: NWS Daily Summary

Daily Weather History Graph

Daily Weather History Graph

Search for Another Location

Airport or City:

Trip Planner

Search our weather history database for the weather conditions in past years. The results will help you decide how hot, cold, wet, or windy it might be!

Date:

Astronomy

Mar. 05, 2014 Rise Set
Actual Time 8:08 AM AKST 6:29 PM AKST
Civil Twilight 7:12 AM AKST 7:25 PM AKST
Nautical Twilight 6:07 AM AKST 8:31 PM AKST
Astronomical Twilight 4:58 AM AKST 9:41 PM AKST
Moon 8:14 AM AKST (3/5) 1:05 AM AKST (3/5)
Length of Visible Light 12h 13m
Length of Day
10h 21m
Waxing Crescent, 24% of the Moon is Illuminated
Mar 5
Waxing Crescent
Mar 8
First Quarter
Mar 16
Full
Mar 23
Last Quarter
Mar 30
New

Hourly Weather History & Observations

Time (AKST) Temp. Windchill Dew Point Humidity Pressure Visibility Wind Dir Wind Speed Gust Speed Precip Events Conditions
12:16 AM -20.2 °F -42.4 °F - N/A% 30.05 in 8.0 mi NE 11.5 mph 18.4 mph N/A   Clear
12:36 AM -20.2 °F -46.0 °F - N/A% 30.05 in 9.0 mi NE 16.1 mph 20.7 mph N/A   Clear
12:56 AM -20.2 °F -43.4 °F - N/A% 30.06 in 8.0 mi NE 12.7 mph - N/A   Clear
1:16 AM -22.0 °F -44.7 °F - N/A% 30.06 in 8.0 mi NNE 11.5 mph - N/A   Scattered Clouds
1:36 AM -22.0 °F -47.5 °F - N/A% 30.06 in 8.0 mi NE 15.0 mph - N/A   Mostly Cloudy
1:56 AM -20.2 °F -46.8 °F - N/A% 30.06 in 7.0 mi NE 17.3 mph - N/A   Mostly Cloudy
2:16 AM -22.0 °F -49.1 °F - N/A% 30.06 in 7.0 mi NE 17.3 mph - N/A   Scattered Clouds
2:36 AM -23.8 °F -52.2 °F - N/A% 30.06 in 5.0 mi ENE 18.4 mph 26.5 mph N/A   Scattered Clouds
2:56 AM -23.8 °F -53.6 °F - N/A% 30.05 in 3.0 mi East 20.7 mph 25.3 mph N/A   Mostly Cloudy
3:16 AM -22.0 °F -49.1 °F - N/A% 30.05 in 4.0 mi ENE 17.3 mph - N/A   Mostly Cloudy
3:36 AM -23.8 °F -49.8 °F - N/A% 30.05 in 4.0 mi NE 15.0 mph - N/A   Partly Cloudy
3:56 AM -23.8 °F -50.7 °F - N/A% 30.05 in 4.0 mi NE 16.1 mph - N/A   Clear
4:16 AM -23.8 °F -50.7 °F - N/A% 30.05 in 5.0 mi NE 16.1 mph 19.6 mph N/A   Clear
4:36 AM -23.8 °F -50.7 °F - N/A% 30.04 in 4.0 mi NE 16.1 mph - N/A   Clear
4:56 AM -23.8 °F -49.8 °F - N/A% 30.05 in 3.0 mi ENE 15.0 mph 21.9 mph N/A   Clear
5:16 AM -23.8 °F -50.7 °F - N/A% 30.04 in 2.5 mi ENE 16.1 mph 23.0 mph N/A   Clear
5:36 AM -23.8 °F -51.5 °F - N/A% 30.05 in 3.0 mi NE 17.3 mph 21.9 mph N/A   Clear
5:56 AM -23.8 °F -52.2 °F - N/A% 30.04 in 4.0 mi ENE 18.4 mph 23.0 mph N/A   Clear
6:16 AM -23.8 °F -51.5 °F - N/A% 30.04 in 5.0 mi ENE 17.3 mph 21.9 mph N/A   Clear
6:36 AM -23.8 °F -51.5 °F - N/A% 30.04 in 5.0 mi NE 17.3 mph 20.7 mph N/A   Mostly Cloudy
6:56 AM -22.0 °F -47.5 °F - N/A% 30.04 in 5.0 mi NE 15.0 mph 21.9 mph N/A   Overcast
7:16 AM -23.8 °F -49.8 °F - N/A% 30.04 in 6.0 mi NE 15.0 mph 20.7 mph N/A   Overcast
7:36 AM -23.8 °F -48.9 °F - N/A% 30.04 in 8.0 mi NNE 13.8 mph 18.4 mph N/A   Overcast
7:56 AM -22.0 °F -46.6 °F - N/A% 30.04 in 5.0 mi North 13.8 mph - N/A   Overcast
8:16 AM -22.0 °F -48.4 °F - N/A% 30.04 in 3.0 mi NNE 16.1 mph - N/A   Overcast
8:36 AM -23.8 °F -48.9 °F - N/A% 30.04 in 5.0 mi NNE 13.8 mph - N/A   Scattered Clouds
8:56 AM -22.0 °F -46.6 °F - N/A% 30.04 in 5.0 mi NNE 13.8 mph - N/A   Scattered Clouds
9:16 AM -22.0 °F -43.6 °F - N/A% 30.04 in 4.0 mi NNE 10.4 mph - N/A   Mostly Cloudy
9:36 AM -22.0 °F -44.7 °F - N/A% 30.04 in 5.0 mi NNE 11.5 mph - N/A   Overcast
9:56 AM -20.2 °F -43.4 °F - N/A% 30.03 in 7.0 mi NNE 12.7 mph 18.4 mph N/A   Mostly Cloudy
10:16 AM -20.2 °F -41.3 °F - N/A% 30.03 in 7.0 mi North 10.4 mph - N/A   Mostly Cloudy
10:36 AM -18.4 °F -41.2 °F -27.4 °F 63% 30.03 in 5.0 mi NNE 12.7 mph 20.7 mph N/A   Partly Cloudy
10:56 AM -18.4 °F -42.9 °F -27.4 °F 63% 30.04 in 6.0 mi NNE 15.0 mph 23.0 mph N/A   Clear
11:16 AM -18.4 °F -43.7 °F -29.2 °F 58% 30.04 in 4.0 mi NE 16.1 mph 21.9 mph N/A   Scattered Clouds
11:36 AM -18.4 °F -43.7 °F -27.4 °F 63% 30.04 in 4.0 mi NE 16.1 mph 24.2 mph N/A   Overcast
11:56 AM -18.4 °F -44.5 °F -29.2 °F 58% 30.04 in 7.0 mi NE 17.3 mph 21.9 mph N/A   Overcast
12:16 PM -18.4 °F -44.5 °F -29.2 °F 58% 30.04 in 5.0 mi NE 17.3 mph 24.2 mph N/A   Overcast
12:36 PM -16.6 °F -42.9 °F -29.2 °F 53% 30.04 in 5.0 mi NE 18.4 mph - N/A   Mostly Cloudy
12:56 PM -16.6 °F -42.9 °F -27.4 °F 58% 30.04 in 5.0 mi NE 18.4 mph 24.2 mph N/A   Partly Cloudy
1:16 PM -16.6 °F -42.1 °F -25.6 °F 64% 30.04 in 4.0 mi NE 17.3 mph 25.3 mph N/A   Clear
1:36 PM -16.6 °F -41.4 °F -27.4 °F 58% 30.04 in 4.0 mi NE 16.1 mph 21.9 mph N/A   Partly Cloudy
1:56 PM -16.6 °F -42.9 °F -27.4 °F 58% 30.04 in 3.0 mi NE 18.4 mph 25.3 mph N/A   Partly Cloudy
2:16 PM -16.6 °F -42.9 °F -27.4 °F 58% 30.04 in 4.0 mi NE 18.4 mph - N/A   Clear
2:36 PM -14.8 °F -41.8 °F -27.4 °F 53% 30.04 in 5.0 mi NE 20.7 mph 24.2 mph N/A   Partly Cloudy
2:56 PM -16.6 °F -40.6 °F -27.4 °F 58% 30.04 in 7.0 mi NE 15.0 mph - N/A   Clear
3:16 PM -16.6 °F -42.1 °F -27.4 °F 58% 30.04 in 7.0 mi NE 17.3 mph 23.0 mph N/A   Partly Cloudy
3:36 PM -16.6 °F - -29.2 °F 53% - 6.0 mi North - - N/A   Partly Cloudy
3:56 PM -16.6 °F -42.9 °F -29.2 °F 53% 30.04 in 8.0 mi ENE 18.4 mph 21.9 mph N/A   Mostly Cloudy
4:16 PM -16.6 °F -43.5 °F -29.2 °F 53% 30.04 in 8.0 mi ENE 19.6 mph 24.2 mph N/A   Mostly Cloudy
4:36 PM -16.6 °F -41.4 °F -29.2 °F 53% 30.05 in 5.0 mi ENE 16.1 mph 24.2 mph N/A   Overcast
4:56 PM -16.6 °F -42.1 °F -29.2 °F 53% 30.05 in 4.0 mi NE 17.3 mph 23.0 mph N/A   Overcast
5:16 PM -16.6 °F -42.1 °F -27.4 °F 58% 30.05 in 5.0 mi NE 17.3 mph 21.9 mph N/A   Mostly Cloudy
5:36 PM -16.6 °F -41.4 °F -27.4 °F 58% 30.05 in 7.0 mi NE 16.1 mph 21.9 mph N/A   Scattered Clouds
5:56 PM -16.6 °F -40.6 °F -29.2 °F 53% 30.06 in 7.0 mi NE 15.0 mph - N/A   Scattered Clouds
6:16 PM -18.4 °F -42.9 °F - N/A% 30.06 in 9.0 mi NE 15.0 mph - N/A   Partly Cloudy
6:36 PM -18.4 °F -40.2 °F -29.2 °F 58% 30.06 in 7.0 mi NE 11.5 mph 20.7 mph N/A   Clear
6:56 PM -18.4 °F -39.1 °F -29.2 °F 58% 30.07 in 8.0 mi NE 10.4 mph - N/A   Clear
7:16 PM -20.2 °F -42.4 °F - N/A% 30.07 in 8.0 mi NNE 11.5 mph - N/A   Clear
7:36 PM -20.2 °F -41.3 °F - N/A% 30.08 in 8.0 mi NNE 10.4 mph - N/A   Clear
7:56 PM -20.2 °F -41.3 °F - N/A% 30.08 in 8.0 mi NNE 10.4 mph - N/A   Clear
8:16 PM -20.2 °F -41.3 °F - N/A% 30.09 in 10.0 mi NNE 10.4 mph - N/A   Clear
8:36 PM -20.2 °F -40.1 °F - N/A% 30.09 in 10.0 mi NNE 9.2 mph - N/A   Scattered Clouds
8:56 PM -20.2 °F -41.3 °F - N/A% 30.09 in 9.0 mi NNE 10.4 mph - N/A   Overcast
9:16 PM -22.0 °F -43.6 °F - N/A% 30.09 in 10.0 mi NNE 10.4 mph - N/A   Overcast
9:36 PM -20.2 °F -38.8 °F - N/A% 30.10 in 9.0 mi NNE 8.1 mph - N/A   Mostly Cloudy
9:56 PM -20.2 °F -40.1 °F - N/A% 30.10 in 9.0 mi NNE 9.2 mph - N/A   Partly Cloudy
10:16 PM -20.2 °F -38.8 °F - N/A% 30.11 in 10.0 mi NNE 8.1 mph - N/A   Clear
10:36 PM -20.2 °F -38.8 °F - N/A% 30.11 in 10.0 mi NNE 8.1 mph - N/A   Clear
10:56 PM -20.2 °F -41.3 °F - N/A% 30.11 in 10.0 mi NNE 10.4 mph - N/A   Scattered Clouds
11:16 PM -20.2 °F -37.3 °F - N/A% 30.12 in 10.0 mi NNE 6.9 mph - N/A   Partly Cloudy
11:36 PM -22.0 °F -41.0 °F - N/A% 30.12 in 10.0 mi NNE 8.1 mph - N/A   Clear
11:56 PM -20.2 °F -40.1 °F - N/A% 30.12 in 10.0 mi NNE 9.2 mph - N/A   Clear